(261586) = 2005 XL20 = 2004 QV14

Discovered at Kitt Peak on 2005-12-02 by Spacewatch.

Orbit

Orbit type: Main Belt

Note: WebGL enabled browser required.

epoch2023-02-25.0
epoch JD2460000.5
perihelion date2020-04-30.84152
perihelion JD2458970.34152
argument of perihelion (°)71.75888
ascending node (°)282.71489
inclination (°)8.25842
eccentricity0.0666791
perihelion distance (AU)2.7875228
Tisserand w.r.t. Jupiter3.2
ΔV w.r.t. Earth (km/sec)10.7
semimajor axis (AU)2.9866716
mean anomaly (°)196.71011
mean daily motion (°/day)0.19095130
aphelion distance (AU)3.186
period (years)5.16
P-vector [x]0.98574511
P-vector [y]-0.14460842
P-vector [z]0.08599405
Q-vector [x]0.09313519
Q-vector [y]0.89467783
Q-vector [z]0.43689520
absolute magnitude15.71
phase slope0.15
uncertainty0
referenceMPO 745323
observations used436
oppositions14
arc length (days)6850
first opposition used2004
last opposition used2023
residual rms (arc-secs)0.76
perturbers coarse indicatorM-v
perturbers precise indicator003Ek
first observation date used2004-08-21.0
last observation date used2023-05-24.0
computer nameMPCLINUX
JD of orbit computation2456937.287826
perihelion JD uncertainty (days)2.2710E-04
argument of perihelion uncertainty (°)4.9982E-05
ascending node uncertainty (°)2.1676E-05
inclination uncertainty (°)4.1599E-06
eccentricity uncertainty 4.6349E-08
perihelion distance uncertainty (AU)1.5069E-07
Minimum Orbit Intersection Distances (in AU)
for orbit epoch: 2460000.5, reference: E2023-KE2
Mercury2.41202
Venus2.07891
Earth1.79392
Mars1.4067
Jupiter2.13904
Saturn6.02839
Uranus15.2971
Neptune27.0539

Observations

446 total observations over interval: 2004 08 21.29733 – 2023 05 24.312742
These data are available for download (format description).

Date (UT) J2000 RA J2000 Dec Magn Location Ref
2004 08 21.29733 22 32 10.53 +01 52 34.4 18.7 R 703 – Catalina Sky Survey MPS 112264
2004 08 21.30583 22 32 10.29 +01 52 34.1 18.7 R 703 – Catalina Sky Survey MPS 112264
2004 08 21.31435 22 32 09.68 +01 52 34.4 19.0 R 703 – Catalina Sky Survey MPS 112264
2004 08 21.32289 22 32 09.26 +01 52 34.6 18.6 R 703 – Catalina Sky Survey MPS 112264
2004 08 25.29681 22 28 59.48 +01 43 58.9 19.5 V 691 – Steward Observatory, Kitt Peak-Spacewatch MPS 161850
2004 08 25.32426 22 28 58.11 +01 43 55.2 19.6 V 691 – Steward Observatory, Kitt Peak-Spacewatch MPS 161850
2004 08 25.35153 22 28 56.74 +01 43 51.2 19.5 V 691 – Steward Observatory, Kitt Peak-Spacewatch MPS 161850
2004 09 10.22915 22 16 23.24 +00 53 35.4 19.4   704 – Lincoln Laboratory ETS, New Mexico MPS 161850
2004 09 10.24063 22 16 22.79 +00 53 32.6 19.9   704 – Lincoln Laboratory ETS, New Mexico MPS 161850
2004 09 10.25277 22 16 22.26 +00 53 30.4 20.0   704 – Lincoln Laboratory ETS, New Mexico MPS 161850
2004 09 10.26422 22 16 21.68 +00 53 27.8 19.7   704 – Lincoln Laboratory ETS, New Mexico MPS 161850
2004 09 10.27574 22 16 21.14 +00 53 24.8 19.3   704 – Lincoln Laboratory ETS, New Mexico MPS 161850
2004 09 18.23918 22 10 53.21 +00 22 50.1   704 – Lincoln Laboratory ETS, New Mexico MPS 407469
2004 09 18.25107 22 10 52.88 +00 22 46.5   704 – Lincoln Laboratory ETS, New Mexico MPS 407469
2004 09 18.26290 22 10 52.36 +00 22 42.1   704 – Lincoln Laboratory ETS, New Mexico MPS 407469
2004 09 24.243887 22 07 28.112 -00 00 21.11 19.92 V 645 – Apache Point-Sloan Digital Sky Survey MPS 390465
2004 09 24.247359 22 07 27.997 -00 00 21.87 20.66   645 – Apache Point-Sloan Digital Sky Survey MPS 390465
2004 10 10.167417 22 02 09.875 -00 54 00.75 20.28 V 645 – Apache Point-Sloan Digital Sky Survey MPS 390465
2004 10 10.170889 22 02 09.840 -00 54 01.29 21.06   645 – Apache Point-Sloan Digital Sky Survey MPS 390465
2005 12 02.19872 05 16 28.96 +28 33 11.2 20.0 V 691 – Steward Observatory, Kitt Peak-Spacewatch MPS 154110
2005 12 02.21630 05 16 27.94 +28 33 08.3 20.0 V 691 – Steward Observatory, Kitt Peak-Spacewatch MPS 154110
2005 12 02.23386 05 16 26.92 +28 33 05.4 20.0 V 691 – Steward Observatory, Kitt Peak-Spacewatch MPS 154110
2005 12 02.29295 05 16 23.35 +28 32 56.7 19.6   704 – Lincoln Laboratory ETS, New Mexico MPS 155483
2005 12 02.30594 05 16 22.63 +28 32 54.2 20.3   704 – Lincoln Laboratory ETS, New Mexico MPS 155483
2005 12 02.31880 05 16 21.88 +28 32 50.1 20.3   704 – Lincoln Laboratory ETS, New Mexico MPS 155483
2005 12 05.26339 05 13 32.45 +28 23 59.2 20.3   704 – Lincoln Laboratory ETS, New Mexico MPS 154110
2005 12 05.27646 05 13 31.59 +28 23 57.6 20.1   704 – Lincoln Laboratory ETS, New Mexico MPS 154110
2005 12 05.30252 05 13 30.04 +28 23 52.1 19.9   704 – Lincoln Laboratory ETS, New Mexico MPS 154110
2005 12 10.23699 05 08 42.27 +28 07 27.7 19.7 V 691 – Steward Observatory, Kitt Peak-Spacewatch MPS 155483
2005 12 10.25798 05 08 41.01 +28 07 23.4 19.6 V 691 – Steward Observatory, Kitt Peak-Spacewatch MPS 155483
2005 12 10.27567 05 08 39.95 +28 07 19.6 19.7 V 691 – Steward Observatory, Kitt Peak-Spacewatch MPS 155483
2005 12 28.08699 04 52 39.76 +26 56 45.1 20.4 V 691 – Steward Observatory, Kitt Peak-Spacewatch MPS 156666
2005 12 28.09725 04 52 39.30 +26 56 42.7 20.2 V 691 – Steward Observatory, Kitt Peak-Spacewatch MPS 156666
2005 12 28.10744 04 52 38.82 +26 56 40.3 20.2 V 691 – Steward Observatory, Kitt Peak-Spacewatch MPS 156666
2005 12 28.25616 04 52 31.72 +26 56 02.6 19.4 V G96 – Mt. Lemmon Survey MPS 156666
2005 12 28.26220 04 52 31.44 +26 56 00.7 19.5 V G96 – Mt. Lemmon Survey MPS 156666
2005 12 28.26854 04 52 31.11 +26 55 59.2 19.6 V G96 – Mt. Lemmon Survey MPS 156666
2005 12 28.27526 04 52 30.79 +26 55 57.5 19.8 V G96 – Mt. Lemmon Survey MPS 156666
2006 02 01.20929 04 40 33.06 +24 48 28.2 20.1 V G96 – Mt. Lemmon Survey MPS 161850
2006 02 01.21432 04 40 33.09 +24 48 27.3 20.0 V G96 – Mt. Lemmon Survey MPS 161850
2006 02 01.21931 04 40 33.13 +24 48 26.6 20.0 V G96 – Mt. Lemmon Survey MPS 161850
2006 02 01.22431 04 40 33.16 +24 48 25.1 20.0 V G96 – Mt. Lemmon Survey MPS 161850
2009 08 12.90089 21 31 11.07 -06 04 50.4 19.2 V J75 – OAM Observatory, La Sagra MPS 291760
2009 08 12.90292 21 31 11.03 -06 04 51.6 18.2 V J75 – OAM Observatory, La Sagra MPS 291760
2009 08 12.91338 21 31 10.47 -06 04 53.1 18.8 V J75 – OAM Observatory, La Sagra MPS 291760
2009 08 12.91541 21 31 10.32 -06 04 52.2 18.8 V J75 – OAM Observatory, La Sagra MPS 291760
2009 08 12.92587 21 31 09.77 -06 04 53.4 19.1 V J75 – OAM Observatory, La Sagra MPS 291760
2009 08 12.92789 21 31 09.66 -06 04 53.8 19.5 V J75 – OAM Observatory, La Sagra MPS 291760
2009 08 14.89959 21 29 30.88 -06 08 14.9 19.0 V J75 – OAM Observatory, La Sagra MPS 291760
2009 08 14.91200 21 29 30.32 -06 08 16.5 18.7 V J75 – OAM Observatory, La Sagra MPS 291760
2009 08 14.92443 21 29 29.65 -06 08 17.5 18.9 V J75 – OAM Observatory, La Sagra MPS 291760
2009 08 15.28905 21 29 11.25 -06 08 55.6 19.4 V 703 – Catalina Sky Survey MPS 291760
2009 08 15.29624 21 29 10.86 -06 08 56.8 19.4 V 703 – Catalina Sky Survey MPS 291760
2009 08 15.30347 21 29 10.39 -06 08 57.5 18.8 V 703 – Catalina Sky Survey MPS 291760
2009 08 15.31073 21 29 09.96 -06 08 58.2 18.3 V 703 – Catalina Sky Survey MPS 291760
2009 08 16.89961 21 27 50.87 -06 11 56.8 19.0 V J75 – OAM Observatory, La Sagra MPS 291760
2009 08 16.91200 21 27 50.18 -06 11 57.2 19.3 V J75 – OAM Observatory, La Sagra MPS 291760
2009 08 16.92440 21 27 49.52 -06 11 59.3 19.1 V J75 – OAM Observatory, La Sagra MPS 291760
2009 08 17.22227 21 27 34.67 -06 12 32.6 19.5   704 – Lincoln Laboratory ETS, New Mexico MPS 291760
2009 08 17.23448 21 27 34.08 -06 12 34.3 19.2   704 – Lincoln Laboratory ETS, New Mexico MPS 291760
2009 08 17.24669 21 27 33.44 -06 12 33.9 18.8   704 – Lincoln Laboratory ETS, New Mexico MPS 291760
2009 08 17.25909 21 27 32.87 -06 12 34.1 19.3   704 – Lincoln Laboratory ETS, New Mexico MPS 291760
2010 11 08.22039 04 20 19.51 +29 49 44.3 19.9 V 691 – Steward Observatory, Kitt Peak-Spacewatch MPS 355378
2010 11 08.23811 04 20 18.64 +29 49 42.3 20.9 V 691 – Steward Observatory, Kitt Peak-Spacewatch MPS 355378
2010 11 08.25582 04 20 17.77 +29 49 39.7 19.9 V 691 – Steward Observatory, Kitt Peak-Spacewatch MPS 355378
2010 11 12.21541 04 16 59.50 +29 38 49.5 20.0 V 691 – Steward Observatory, Kitt Peak-Spacewatch MPS 357439
2010 11 12.23314 04 16 58.47 +29 38 47.3 20.7 V 691 – Steward Observatory, Kitt Peak-Spacewatch MPS 357439
2010 11 12.25086 04 16 57.60 +29 38 43.4 20.1 V 691 – Steward Observatory, Kitt Peak-Spacewatch MPS 357439
2010 11 15.33774 04 14 14.06 +29 28 52.5 19.6   704 – Lincoln Laboratory ETS, New Mexico MPS 357440
2010 11 15.35115 04 14 13.26 +29 28 50.0 19.8   704 – Lincoln Laboratory ETS, New Mexico MPS 357440
2010 11 15.36434 04 14 12.52 +29 28 48.9 19.8   704 – Lincoln Laboratory ETS, New Mexico MPS 357440
2010 11 17.27758 04 12 28.44 +29 22 04.5 19.1   704 – Lincoln Laboratory ETS, New Mexico MPS 386791
2010 11 17.30354 04 12 26.97 +29 21 59.6 19.8   704 – Lincoln Laboratory ETS, New Mexico MPS 386791
2010 11 17.31647 04 12 26.24 +29 21 56.9 19.4   704 – Lincoln Laboratory ETS, New Mexico MPS 386791
2010 11 27.38598 04 03 00.46 +28 39 46.5 19.3 V G96 – Mt. Lemmon Survey MPS 358939
2010 11 27.39567 04 02 59.89 +28 39 43.7 19.5 V G96 – Mt. Lemmon Survey MPS 358939
2010 11 27.40535 04 02 59.35 +28 39 41.1 19.4 V G96 – Mt. Lemmon Survey MPS 358939
2010 11 27.41502 04 02 58.77 +28 39 38.3 19.4 V G96 – Mt. Lemmon Survey MPS 358939
2010 12 07.25461 03 54 06.32 +27 49 53.2 19.5   704 – Lincoln Laboratory ETS, New Mexico MPS 358939
2010 12 07.26763 03 54 05.65 +27 49 48.6 19.6   704 – Lincoln Laboratory ETS, New Mexico MPS 358939
2010 12 07.28074 03 54 04.93 +27 49 44.4 19.7   704 – Lincoln Laboratory ETS, New Mexico MPS 358939
2010 12 07.30702 03 54 03.59 +27 49 33.7 20.1   704 – Lincoln Laboratory ETS, New Mexico MPS 358939
2010 12 08.28253 03 53 14.35 +27 44 22.9 19.5 V 703 – Catalina Sky Survey MPS 358939
2010 12 08.28834 03 53 14.02 +27 44 21.3 19.4 V 703 – Catalina Sky Survey MPS 358939
2010 12 08.29411 03 53 13.84 +27 44 19.1 19.0 V 703 – Catalina Sky Survey MPS 358939
